Terug naar catalogus

DMSP 5D-2 F14 DEB

ActiefPO
NORAD 62942·DEBRIS·🇺🇸 United States

Gelanceerd Apr 4, 1997 vanaf Vandenberg Space Force Base

Loading…

Volgende Passages (komende 24 uur)

TLE

VersSource: Space-Track

Epoch: Sep 14, 2026, 02:51 UTC

1 62942U 97012N   26257.11892717  .00008741  00000-0  35792-2 0  9998
2 62942  99.3318 323.4678 0122126  41.6997 319.3410 14.23441190520378

Volg DMSP 5D-2 F14 DEB in realtime met AllMySat

Download on the App Store